Columbus, OH

6:37 PM EST on February 09, 2016 (GMT -0500)
Port Columbus International

Weather History for KCMH - November, 2013

Change the Weather History Date:

Friday, November 8, 2013

  Actual Average Record
Temperature  
Mean Temperature 41 °F 47 °F  
Max Temperature 48 °F 56 °F 74 °F (1945)
Min Temperature 34 °F 39 °F 13 °F (1971)
Degree Days  
Heating Degree Days 24 18  
Month to date heating degree days 120 132  
Since 1 July heating degree days 473 526  
Cooling Degree Days 0 0  
Month to date cooling degree days 0 0  
Year to date cooling degree days 1179 1024  
Moisture  
Dew Point 30 °F    
Average Humidity 66    
Maximum Humidity 82    
Minimum Humidity 49    
Precipitation  
Precipitation T in 0.10 in 1.08 in (1897)
Month to date precipitation 0.62 0.81  
Year to date precipitation 35.69 33.95  
Snow  
Snow 0.00 in 0.00 in 0.50 in (1900)
Month to date snowfall 0.0 0.1  
Since 1 July snowfall T 0.3  
Since 1 September snowfall T 0.3  
Snow Depth 0.00 in    
Sea Level Pressure  
Sea Level Pressure 30.28 in    
Wind  
Wind Speed 6 mph (West)    
Max Wind Speed 17 mph    
Max Gust Speed 22 mph    
Visibility 9 miles    
Events      
T = Trace of Precipitation, MM = Missing Value Source: NWS Daily Summary

Daily Weather History Graph

Daily Weather History Graph

Search for Another Location

Airport or City:

Trip Planner

Search our weather history database for the weather conditions in past years. The results will help you decide how hot, cold, wet, or windy it might be!

Date:

Astronomy

Nov. 08, 2013 Rise Set
Actual Time 7:08 AM EST 5:21 PM EST
Civil Twilight 6:40 AM EST 5:49 PM EST
Nautical Twilight 6:07 AM EST 6:22 PM EST
Astronomical Twilight 5:36 AM EST 6:53 PM EST
Moon 12:03 PM EST (11/8) 10:40 PM EST (11/8)
Length of Visible Light 11h 09m
Length of Day
10h 12m
Waxing Crescent, 33% of the Moon is Illuminated
Nov 8
Waxing Crescent
Nov 10
First Quarter
Nov 17
Full
Nov 25
Last Quarter
Dec 2
New

Hourly Weather History & Observations

Time (EST) Temp. Windchill Dew Point Humidity Pressure Visibility Wind Dir Wind Speed Gust Speed Precip Events Conditions
12:51 AM 42.1 °F 34.9 °F 28.0 °F 58% 30.19 in 10.0 mi West 13.8 mph 19.6 mph N/A   Overcast
1:51 AM 41.0 °F 34.7 °F 32.0 °F 70% 30.19 in 10.0 mi West 10.4 mph - 0.00 in   Overcast
2:51 AM 39.9 °F 34.5 °F 33.1 °F 77% 30.20 in 10.0 mi West 8.1 mph - N/A   Overcast
2:58 AM 39.2 °F 33.6 °F 33.8 °F 81% 30.19 in 10.0 mi WNW 8.1 mph - N/A   Overcast
3:51 AM 37.9 °F 32.1 °F 30.9 °F 76% 30.22 in 10.0 mi WNW 8.1 mph - N/A   Overcast
4:51 AM 37.0 °F 29.8 °F 32.0 °F 82% 30.23 in 9.0 mi West 10.4 mph - N/A   Clear
5:51 AM 35.1 °F 27.9 °F 30.9 °F 85% 30.25 in 6.0 mi West 9.2 mph - N/A   Clear
6:51 AM 35.1 °F 29.3 °F 30.0 °F 82% 30.28 in 6.0 mi WNW 6.9 mph - N/A   Haze
7:51 AM 35.1 °F 30.1 °F 30.0 °F 82% 30.31 in 5.0 mi West 5.8 mph - N/A   Haze
8:42 AM 35.6 °F 27.5 °F 30.2 °F 81% 30.31 in 6.0 mi West 11.5 mph - N/A   Haze
8:51 AM 36.0 °F 29.0 °F 30.0 °F 79% 30.33 in 6.0 mi WNW 9.2 mph - N/A   Haze
9:24 AM 37.4 °F 30.8 °F 30.2 °F 75% 30.32 in 7.0 mi WNW 9.2 mph - N/A   Scattered Clouds
9:51 AM 37.9 °F 32.1 °F 30.0 °F 73% 30.35 in 7.0 mi NW 8.1 mph - N/A   Scattered Clouds
10:01 AM 37.4 °F 32.8 °F 30.2 °F 75% 30.33 in 7.0 mi NW 5.8 mph - N/A   Mostly Cloudy
10:51 AM 39.0 °F 35.7 °F 30.9 °F 73% 30.36 in 7.0 mi West 4.6 mph - N/A   Mostly Cloudy
11:51 AM 43.0 °F 40.3 °F 30.9 °F 62% 30.35 in 8.0 mi WSW 4.6 mph - N/A   Mostly Cloudy
12:12 PM 42.8 °F 39.3 °F 30.2 °F 61% 30.33 in 10.0 mi WSW 5.8 mph - N/A   Mostly Cloudy
12:51 PM 44.1 °F 40.1 °F 28.9 °F 55% 30.32 in 10.0 mi West 6.9 mph - N/A   Mostly Cloudy
1:51 PM 46.0 °F 40.6 °F 28.9 °F 51% 30.30 in 10.0 mi WSW 11.5 mph 16.1 mph N/A   Scattered Clouds
2:51 PM 46.9 °F - 28.0 °F 48% 30.30 in 10.0 mi West 9.2 mph - N/A   Scattered Clouds
3:51 PM 45.0 °F 40.6 °F 26.1 °F 48% 30.30 in 10.0 mi West 8.1 mph - N/A   Scattered Clouds
4:51 PM 44.1 °F 40.8 °F 28.0 °F 53% 30.30 in 10.0 mi West 5.8 mph - N/A   Scattered Clouds
5:51 PM 44.1 °F - 27.0 °F 51% 30.29 in 10.0 mi Calm Calm - N/A   Partly Cloudy
6:51 PM 41.0 °F - 28.9 °F 62% 30.30 in 10.0 mi Calm Calm - N/A   Partly Cloudy
7:51 PM 37.0 °F - 28.9 °F 73% 30.30 in 10.0 mi Calm Calm - N/A   Clear
8:51 PM 37.9 °F - 28.9 °F 70% 30.29 in 10.0 mi Calm Calm - N/A   Partly Cloudy
9:51 PM 36.0 °F - 28.9 °F 76% 30.29 in 10.0 mi Calm Calm - N/A   Partly Cloudy
10:51 PM 37.9 °F 35.5 °F 28.0 °F 68% 30.28 in 10.0 mi SE 3.5 mph - N/A   Mostly Cloudy
11:51 PM 37.9 °F - 28.9 °F 70% 30.26 in 10.0 mi Calm Calm - N/A   Mostly Cloudy